Terug naar catalogus

ATLAS 5 CENTAUR DEB

ActiefHEO
NORAD 43998·DEBRIS·🇺🇸 United States

Gelanceerd Sep 17, 2014 vanaf Cape Canaveral Space Force Station

Loading…

Volgende Passages (komende 24 uur)

TLE

VerouderendSource: Space-Track

Epoch: Sep 2, 2026, 13:01 UTC

1 43998U 14055BD  26245.54274141 -.00000136  00000-0  00000+0 0  9995
2 43998  20.5227 124.0616 5050088 202.4464 123.9851  1.83525620 52740

Volg ATLAS 5 CENTAUR DEB in realtime met AllMySat

Download on the App Store